This is the latest recevied weather packets stored in our database for station/object WA3NOA-2. If no packets are shown the sender has not sent any weather packets the latest 10 day(s).
| Time | Temp. | Humidity | Pressure | Rain* | Wind** | Luminosity | Snow |
|---|---|---|---|---|---|---|---|
| 1777822627 | 11.11° C | 49% | 1008 hPa | 0 mm | - | - | - |
| 1777822388 | 11.67° C | 46% | 1008 hPa | 0 mm | - | - | - |
| 1777822327 | 12.22° C | 49% | 1008 hPa | 0 mm | - | - | - |
| 1777822027 | 11.67° C | 47% | 1008.1 hPa | 0 mm | - | - | - |
| 1777821727 | 11.11° C | 52% | 1008.2 hPa | 0 mm | - | - | - |
| 1777821488 | 10° C | 48% | 1008.1 hPa | 0 mm | - | - | - |
| 1777821427 | 10° C | 49% | 1008.1 hPa | 0 mm | - | - | - |
| 1777821127 | 11.11° C | 48% | 1008.2 hPa | 0 mm | - | - | - |
| 1777820827 | 11.11° C | 49% | 1008.2 hPa | 0 mm | - | - | - |
| 1777820588 | 11.11° C | 49% | 1008.2 hPa | 0 mm | - | - | - |
| 1777820527 | 11.11° C | 51% | 1008.2 hPa | 0 mm | - | - | - |
| 1777820227 | 10.56° C | 49% | 1008.1 hPa | 0 mm | - | - | - |
| 1777819927 | 11.67° C | 49% | 1008.2 hPa | 0 mm | - | - | - |
| 1777819688 | 10.56° C | 53% | 1008.1 hPa | 0 mm | - | - | - |
| 1777819627 | 10.56° C | 49% | 1008.2 hPa | 0 mm | - | - | - |
| 1777819327 | 9.44° C | 54% | 1008.2 hPa | 0 mm | - | - | - |
| 1777819027 | 10° C | 52% | 1008.2 hPa | 0 mm | - | - | - |
| 1777818788 | 10.56° C | 52% | 1008.2 hPa | 0 mm | - | - | - |
| 1777818727 | 11.11° C | 51% | 1008.2 hPa | 0 mm | - | - | - |
| 1777818427 | 10.56° C | 55% | 1008.1 hPa | 0 mm | - | - | - |
| 1777818127 | 10.56° C | 54% | 1008.2 hPa | 0 mm | - | - | - |
| 1777817888 | 10.56° C | 51% | 1008.2 hPa | 0 mm | - | - | - |
| 1777817827 | 10.56° C | 52% | 1008.2 hPa | 0 mm | - | - | - |
| 1777817527 | 10.56° C | 53% | 1008.1 hPa | 0 mm | - | - | - |
| 1777817227 | 10° C | 52% | 1008.1 hPa | 0 mm | - | - | - |
* Rain latest hour (hover to see other rain measurements)
** Current wind speed in m/s (hover to see current wind gust speed)